Overview Statistics Trail Chart Weather Telemetry Raw packets
 

This is the latest recevied weather packets stored in our database for station/object KN6DHD. If no packets are shown the sender has not sent any weather packets the latest 10 day(s).

<< 110 111 112 113 114 >>
Time Temp. Humidity Pressure Rain* Wind** Luminosity Snow
1776894190 18.33° C 65% 1023.1 hPa 0 mm - 340 W/m² -
1776893884 17.78° C 64% 1023.2 hPa 0 mm - 739 W/m² -
1776893581 18.33° C 64% 1023.2 hPa 0 mm - 364 W/m² -
1776893279 17.78° C 70% 1023.2 hPa 0 mm - 275 W/m² -
1776892976 17.78° C 69% 1023.4 hPa 0 mm - 366 W/m² -
1776892673 17.78° C 68% 1023.3 hPa 0 mm - 203 W/m² -
1776892370 18.33° C 67% 1023.3 hPa 0 mm - 225 W/m² -
1776892065 17.78° C 67% 1023.3 hPa 0 mm - 234 W/m² -
1776891763 17.78° C 67% 1023.3 hPa 0 mm - 277 W/m² -
1776891460 17.78° C 67% 1023.4 hPa 0 mm - 653 W/m² -
1776891155 17.78° C 68% 1023.4 hPa 0 mm - 410 W/m² -
1776890852 17.78° C 70% 1023.4 hPa 0 mm - 669 W/m² -
1776890549 17.22° C 71% 1023.4 hPa 0 mm - 385 W/m² -
1776890245 17.22° C 70% 1023.6 hPa 0 mm - 721 W/m² -
1776889942 17.22° C 69% 1023.7 hPa 0 mm - 212 W/m² -
1776889638 16.67° C 74% 1023.5 hPa 0 mm - 250 W/m² -
1776889335 16.67° C 73% 1023.7 hPa 0 mm - 260 W/m² -
1776889034 16.67° C 74% 1023.5 hPa 0 mm - 265 W/m² -
1776888732 16.11° C 75% 1023.6 hPa 0 mm - 178 W/m² -
1776888430 15.56° C 77% 1023.5 hPa 0 mm - 140 W/m² -
1776888127 15.56° C 77% 1023.8 hPa 0 mm - 162 W/m² -
1776887822 16.11° C 77% 1023.8 hPa 0 mm - 189 W/m² -
1776887519 16.11° C 77% 1023.7 hPa 0 mm - 215 W/m² -
1776887216 16.11° C 75% 1024.1 hPa 0 mm - 245 W/m² -
1776886913 15.56° C 76% 1023.9 hPa 0 mm - 255 W/m² -

* Rain latest hour (hover to see other rain measurements)
** Current wind speed in m/s (hover to see current wind gust speed)